| time (UTC) | temp F | wind direction | speed MPH | gust MPH | rain 1hr in | rain 24hr in | rain mn in | humidity % | barometer mb |
| 20260905160031 | 52 | 22 | 0.0 | 0.0 | 0.00 | 0.02 | 0.00 | 96 | 1019.8 |
| 20260905154531 | 51 | 22 | 0.0 | 1.0 | 0.00 | 0.02 | 0.00 | 96 | 1019.8 |
| 20260905153032 | 50 | 11 | 0.0 | 3.0 | 0.00 | 0.02 | 0.00 | 97 | 1019.8 |
| 20260905151530 | 49 | 202 | 0.0 | 0.0 | 0.00 | 0.02 | 0.00 | 96 | 1019.7 |
| 20260905150031 | 48 | 201 | 0.0 | 0.0 | 0.00 | 0.02 | 0.00 | 96 | 1019.6 |
| 20260905144530 | 47 | 157 | 0.0 | 0.0 | 0.00 | 0.02 | 0.00 | 96 | 1019.5 |
| 20260905143030 | 46 | 157 | 0.0 | 4.0 | 0.00 | 0.02 | 0.00 | 96 | 1019.5 |
| 20260905141541 | 45 | 157 | 0.0 | 4.0 | 0.00 | 0.02 | 0.00 | 96 | 1019.4 |
| 20260905134531 | 43 | 157 | 0.0 | 3.0 | 0.00 | 0.02 | 0.00 | 96 | 1019.2 |
| 20260905133032 | 44 | 157 | 0.0 | 2.0 | 0.00 | 0.02 | 0.00 | 96 | 1019.1 |
| 20260905131530 | 45 | 177 | 0.0 | 2.0 | 0.00 | 0.02 | 0.00 | 96 | 1019.0 |
| 20260905130030 | 45 | 164 | 0.0 | 2.0 | 0.00 | 0.03 | 0.00 | 96 | 1019.0 |
| 20260905124608 | 46 | 157 | 0.0 | 2.0 | 0.00 | 0.03 | 0.00 | 96 | 1019.1 |
| 20260905121605 | 47 | 147 | 0.0 | 2.0 | 0.00 | 0.04 | 0.00 | 96 | 1019.1 |
| 20260905120107 | 47 | 197 | 1.0 | 3.0 | 0.00 | 0.04 | 0.00 | 96 | 1019.1 |
| 20260905114532 | 47 | 247 | 0.0 | 0.0 | 0.00 | 0.04 | 0.00 | 96 | 1018.9 |
| 20260905111532 | 48 | 146 | 0.0 | 1.0 | 0.00 | 0.04 | 0.00 | 96 | 1018.7 |
| 20260905104530 | 48 | 202 | 0.0 | 1.0 | 0.00 | 0.05 | 0.00 | 96 | 1018.8 |
| 20260905103106 | 48 | 202 | 0.0 | 0.0 | 0.00 | 0.05 | 0.00 | 96 | 1018.7 |
| 20260905101531 | 49 | 202 | 0.0 | 0.0 | 0.00 | 0.05 | 0.00 | 95 | 1018.8 |
| 20260905100031 | 49 | 202 | 0.0 | 0.0 | 0.00 | 0.05 | 0.00 | 95 | 1018.8 |
| 20260905093033 | 49 | 202 | 0.0 | 0.0 | 0.00 | 0.05 | 0.00 | 95 | 1018.9 |
| 20260905091530 | 49 | 202 | 0.0 | 0.0 | 0.00 | 0.05 | 0.00 | 95 | 1018.8 |
| 20260905090104 | 49 | 232 | 0.0 | 3.0 | 0.00 | 0.05 | 0.00 | 95 | 1018.7 |
| 20260905083031 | 49 | 247 | 0.0 | 0.0 | 0.00 | 0.05 | 0.00 | 95 | 1018.6 |
| 20260905081531 | 49 | 247 | 0.0 | 0.0 | 0.00 | 0.05 | 0.00 | 95 | 1018.6 |
| 20260905080031 | 49 | 247 | 0.0 | 0.0 | 0.00 | 0.05 | 0.00 | 95 | 1018.5 |
| 20260905074606 | 50 | 232 | 0.0 | 3.0 | 0.00 | 0.05 | 0.00 | 95 | 1018.3 |
| 20260905071604 | 50 | 153 | 1.0 | 2.0 | 0.00 | 0.05 | 0.00 | 94 | 1018.1 |
| 20260905070030 | 50 | 169 | 1.0 | 2.0 | 0.01 | 0.05 | 0.00 | 94 | 1018.0 |
| 20260905063030 | 51 | 196 | 0.0 | 3.0 | 0.02 | 0.05 | 0.05 | 94 | 1017.9 |
| 20260905061531 | 52 | 360 | 1.0 | 3.0 | 0.02 | 0.05 | 0.04 | 94 | 1017.9 |
| 20260905060031 | 52 | 109 | 0.0 | 3.0 | 0.01 | 0.04 | 0.03 | 93 | 1018.1 |
| 20260905054531 | 52 | 153 | 1.0 | 4.0 | 0.00 | 0.03 | 0.03 | 93 | 1018.1 |
| 20260905053031 | 51 | 157 | 2.0 | 4.0 | 0.00 | 0.03 | 0.03 | 93 | 1018.0 |
| 20260905051530 | 51 | 157 | 0.0 | 0.0 | 0.00 | 0.03 | 0.03 | 92 | 1018.0 |
| 20260905043030 | 51 | 157 | 0.0 | 1.0 | 0.00 | 0.03 | 0.03 | 91 | 1017.7 |
| 20260905041530 | 52 | 157 | 0.0 | 1.0 | 0.00 | 0.03 | 0.03 | 91 | 1017.6 |
| 20260905040107 | 51 | 157 | 0.0 | 2.0 | 0.00 | 0.03 | 0.03 | 90 | 1017.5 |
| 20260905033030 | 51 | 180 | 1.0 | 4.0 | 0.00 | 0.03 | 0.03 | 87 | 1017.2 |
| 20260905031530 | 55 | 148 | 0.0 | 0.0 | 0.00 | 0.03 | 0.03 | 84 | 1017.1 |
| 20260905024530 | 56 | 67 | 0.0 | 3.0 | 0.00 | 0.03 | 0.03 | 83 | 1017.1 |
| 20260905023107 | 57 | 67 | 1.0 | 2.0 | 0.00 | 0.03 | 0.03 | 81 | 1017.2 |
| 20260905021532 | 59 | 48 | 2.0 | 5.0 | 0.00 | 0.03 | 0.03 | 79 | 1017.0 |
| 20260905020032 | 59 | 24 | 1.0 | 5.0 | 0.00 | 0.03 | 0.03 | 77 | 1016.8 |
| 20260905014603 | 60 | 22 | 0.0 | 2.0 | 0.00 | 0.03 | 0.03 | 77 | 1016.6 |
| 20260905013028 | 60 | 22 | 0.0 | 2.0 | 0.00 | 0.03 | 0.03 | 77 | 1016.4 |
| 20260905010030 | 61 | 265 | 0.0 | 3.0 | 0.00 | 0.03 | 0.03 | 77 | 1016.5 |
| 20260905004531 | 61 | 247 | 0.0 | 0.0 | 0.00 | 0.03 | 0.03 | 77 | 1016.4 |
| 20260905003032 | 61 | 248 | 0.0 | 2.0 | 0.00 | 0.03 | 0.03 | 76 | 1016.2 |
| 20260905001602 | 61 | 282 | 1.0 | 3.0 | 0.00 | 0.03 | 0.03 | 76 | 1016.2 |
| 20260905000031 | 61 | 258 | 2.0 | 5.0 | 0.00 | 0.03 | 0.03 | 76 | 1016.2 |
| 20260904233106 | 61 | 266 | 2.0 | 5.0 | 0.00 | 0.03 | 0.03 | 74 | 1016.1 |
| 20260904231531 | 61 | 315 | 1.0 | 3.0 | 0.00 | 0.05 | 0.03 | 74 | 1016.1 |
| 20260904230030 | 62 | 10 | 2.0 | 5.0 | 0.00 | 0.06 | 0.03 | 74 | 1016.1 |
| 20260904224531 | 61 | 142 | 0.0 | 4.0 | 0.00 | 0.06 | 0.03 | 75 | 1016.1 |
| 20260904223041 | 61 | 127 | 3.0 | 6.0 | 0.00 | 0.06 | 0.03 | 77 | 1016.0 |
| 20260904221531 | 61 | 153 | 1.0 | 5.0 | 0.00 | 0.06 | 0.03 | 79 | 1016.0 |
| 20260904214534 | 61 | 114 | 1.0 | 3.0 | 0.00 | 0.06 | 0.03 | 79 | 1015.9 |
| 20260904213105 | 62 | 284 | 0.0 | 2.0 | 0.00 | 0.06 | 0.03 | 79 | 1015.8 |
| 20260904211533 | 61 | 215 | 0.0 | 3.0 | 0.00 | 0.06 | 0.03 | 81 | 1015.8 |
| 20260904210029 | 60 | 67 | 0.0 | 0.0 | 0.00 | 0.06 | 0.03 | 82 | 1015.6 |
| 20260904204533 | 59 | 70 | 0.0 | 3.0 | 0.00 | 0.06 | 0.03 | 82 | 1015.6 |
| 20260904203029 | 59 | 106 | 2.0 | 4.0 | 0.00 | 0.06 | 0.03 | 82 | 1015.6 |
| 20260904201529 | 60 | 108 | 1.0 | 4.0 | 0.00 | 0.06 | 0.03 | 80 | 1015.8 |
| 20260904200029 | 61 | 29 | 2.0 | 5.0 | 0.00 | 0.06 | 0.03 | 80 | 1015.7 |
| 20260904194532 | 60 | 47 | 2.0 | 6.0 | 0.00 | 0.06 | 0.03 | 83 | 1015.9 |
| 20260904193028 | 58 | 10 | 0.0 | 3.0 | 0.00 | 0.06 | 0.03 | 85 | 1016.0 |
| 20260904191605 | 57 | 356 | 1.0 | 4.0 | 0.00 | 0.06 | 0.03 | 86 | 1016.0 |
| 20260904190030 | 57 | 346 | 1.0 | 4.0 | 0.00 | 0.06 | 0.03 | 86 | 1016.1 |
| 20260904184606 | 57 | 99 | 0.0 | 3.0 | 0.00 | 0.06 | 0.03 | 88 | 1016.1 |
| 20260904181605 | 56 | 326 | 0.0 | 3.0 | 0.00 | 0.06 | 0.03 | 89 | 1015.9 |
| 20260904180028 | 56 | 236 | 0.0 | 3.0 | 0.00 | 0.06 | 0.03 | 92 | 1015.9 |
| 20260904173030 | 52 | 60 | 0.0 | 3.0 | 0.00 | 0.06 | 0.03 | 94 | 1015.8 |
| 20260904171606 | 52 | 67 | 1.0 | 3.0 | 0.00 | 0.06 | 0.03 | 94 | 1015.8 |
| 20260904164528 | 53 | 20 | 2.0 | 3.0 | 0.00 | 0.06 | 0.03 | 94 | 1015.8 |
| 20260904163033 | 54 | 27 | 1.0 | 4.0 | 0.00 | 0.06 | 0.03 | 95 | 1015.7 |
| 20260904161528 | 51 | 11 | 1.0 | 5.0 | 0.00 | 0.06 | 0.03 | 96 | 1015.6 |